[[{"header":{"parameterUnit":"m.s-1","parameterCategory":1,"la1":30.2991,"la2":30.254,"lo1":-89.0895,"lo2":-89.0444,"dy":0.0017,"dx":0.0017,"nx":28,"ny":28,"refTime":"2024-07-30T03:00:00:Z","depth":0,"parameterNumber":2,"parameterNumberName":"U-component_of_WINDS"},"data":[0,0,0,0,0,0,0,0,0,0,0,0,0,0,0,0,0,0,0,0,0,0,0,0,0,0,0,0,0,0,0,0,0,0,0,0,0,0,0,0,0,0,0,0,0,0,0,0,0,0,0,0,0,0,0,0,0,0,4.4794,4.4795,0,4.492,4.4921,4.4923,4.4853,4.4849,4.4846,4.4843,4.4972,4.4979,4.4985,0,0,0,0,0,0,0,0,0,0,0,0,0,4.4492,4.4498,4.4794,4.4795,4.4797,4.492,4.4921,4.4923,4.4854,4.4849,4.4845,4.4841,4.497,4.4978,4.4986,0,0,0,0,0,0,0,0,0,0,0,0,0,4.4621,4.45,4.4793,4.4777,4.4777,4.4919,4.4921,4.4923,4.4854,4.4849,4.4844,4.4839,4.4967,4.4977,4.4987,4.5153,0,0,4.5018,4.5022,0,0,0,0,0,0,0,0,4.4614,4.4632,4.4778,4.4778,4.4778,4.4865,4.4862,4.5,4.4856,4.4825,4.4843,4.4837,4.4941,4.4953,4.4988,4.5159,4.5165,4.5019,4.5025,4.5029,4.5032,0,0,0,0,0,0,0,4.4605,4.4626,4.4844,4.478,4.478,4.4763,4.4775,4.4888,4.4911,4.4827,4.4823,4.4838,4.494,4.4978,4.499,4.5166,4.5018,4.5027,4.5033,4.5037,4.5476,4.5482,0,0,0,0,0,0,4.4597,4.4619,4.484,4.4847,4.4682,4.4773,4.4787,4.4843,4.4909,4.4914,4.4843,4.4835,4.4964,4.4979,4.4995,4.519,4.5029,4.5038,4.5044,4.5471,4.5477,4.5484,0,0,0,0,0,0,4.4591,4.4617,4.4834,4.4732,4.4758,4.4783,4.4847,4.4848,4.4886,4.4921,4.4924,4.4878,4.496,4.4981,4.5113,4.5194,4.5043,4.5052,4.5464,4.5473,4.548,4.5585,0,0,0,0,0,0,4.4582,4.4616,4.4679,4.4734,4.4764,4.4952,4.4852,4.4854,4.4903,4.4894,4.4955,4.496,4.4958,4.5099,4.5123,4.5205,4.506,4.5457,4.5468,4.5478,4.5574,4.5596,4.5614,0,0,0,0,0,4.4572,4.4704,4.4683,4.471,4.4844,4.4957,4.4974,4.4969,4.491,4.4974,4.4996,4.4958,4.5182,4.5113,4.514,4.5226,4.5452,4.5465,4.5477,4.5565,4.5591,4.5614,0,0,0,0,0,0,4.4659,4.4711,4.4688,4.4842,4.4895,4.4944,4.5025,4.4997,4.5068,4.5056,4.5047,4.5062,4.5199,4.5226,4.5149,4.5388,4.5307,4.5326,4.5365,4.539,4.541,4.5399,4.5068,0,0,0,0,0,4.4696,4.4783,4.4824,4.4956,4.4984,4.5,4.5049,4.504,4.5095,4.5117,4.5149,4.5203,4.5285,4.534,4.5418,4.5578,4.5589,4.565,4.567,4.5687,4.5702,4.5786,4.5813,4.5525,4.5525,4.5525,0,0,4.4774,4.4813,4.4869,4.4975,4.5015,4.5104,4.502,4.5118,4.5184,4.5132,4.5258,4.5284,4.5344,4.549,4.5556,4.5517,4.5784,4.5703,4.5716,4.5722,4.5802,4.5829,4.5853,4.5534,4.5532,4.5531,0,0,4.496,4.5,4.5113,4.5154,4.5216,4.5225,4.5252,4.5306,4.532,4.5446,4.5408,4.5487,4.5629,4.5672,4.5713,4.5914,4.588,4.594,4.6043,4.6125,4.6148,4.6168,4.6236,4.6261,4.5956,4.5956,4.5956,0,4.5049,4.5182,4.5174,4.5275,4.5322,4.5279,4.5391,4.5432,4.5517,4.5549,4.5504,4.568,4.5718,4.5872,4.592,4.5956,4.5985,4.5932,4.6145,4.6165,4.6183,4.6249,4.6275,4.5963,4.5962,4.5961,4.5961,0,4.5286,4.5379,4.5463,4.5543,4.56,4.5707,4.5714,4.5772,4.5758,4.5772,4.59,4.5944,4.6028,4.6065,4.6053,4.6217,4.619,4.6146,4.6064,4.6218,4.6278,4.6304,4.5972,4.597,4.5968,4.5966,0,0,4.5531,4.5605,4.5635,4.567,4.5734,4.5805,4.5909,4.5991,4.6039,4.6099,4.6184,4.6305,4.6263,4.6309,4.6302,4.6374,4.6526,4.632,4.6321,4.6354,4.6706,4.6737,4.6766,4.6505,4.651,4.6514,4.67,0,4.5719,4.59,4.5895,4.6063,4.6147,4.6107,4.6197,4.6245,4.6261,4.6334,4.6351,4.6435,4.6376,4.6403,4.6473,4.6493,4.6596,4.648,4.6583,4.6586,4.6566,4.6798,4.6832,4.7005,4.6724,4.6728,4.6731,0,4.5962,4.6028,4.6204,4.6253,4.6288,4.6369,4.6442,4.6513,4.6566,4.6572,4.6623,4.6604,4.6708,4.6625,4.6767,4.6688,4.6729,4.6746,4.6752,4.676,4.6666,4.6809,4.706,4.7085,4.6769,4.6766,4.6763,0,4.6118,4.6252,4.6373,4.6405,4.6466,4.6523,4.6551,4.6599,4.6648,4.6712,4.6743,4.6819,4.686,4.6919,4.692,4.686,4.7062,4.698,4.7068,4.7068,4.7111,4.7107,4.7369,4.7143,4.7142,4.7142,4.7141,0,4.6327,4.6436,4.6443,4.6518,4.6638,4.6631,4.675,4.6772,4.6815,4.6892,4.6863,4.6936,4.6935,4.7009,4.7011,4.7126,4.7146,4.7152,4.7151,4.7153,4.7152,4.7178,4.7165,4.7149,4.7147,4.7146,4.7145,0,4.6521,4.6531,4.666,4.6707,4.6721,4.6807,4.6846,4.6917,4.6929,4.7027,4.705,4.707,4.7155,4.7162,4.7262,4.7263,4.7401,4.7389,4.7383,4.738,4.7466,4.7457,4.7752,4.7789,4.7541,4.7544,4.7546,0,4.6652,4.6734,4.6789,4.6838,4.6869,4.695,4.6998,4.6995,4.7047,4.7113,4.7175,4.7257,4.7322,4.7461,4.7483,4.7559,4.7546,4.7644,4.7557,4.7555,4.7543,4.7537,4.7544,4.766,4.7663,4.7665,4.7667,0,4.6882,4.6883,4.6954,4.7027,4.7086,4.7144,4.7198,4.724,4.7243,4.7302,4.7389,4.7439,4.754,4.7621,4.7695,4.7722,4.7695,4.7694,4.7718,4.772,4.7712,4.7714,4.7426,4.7687,4.7685,4.7684,4.7682,4.7682,4.7047,4.7116,4.7165,4.7245,4.7285,4.7335,4.7402,4.7423,4.7495,4.7576,4.757,4.7665,4.7714,4.7809,4.7843,4.7916,4.7883,4.7918,4.7927,4.7935,4.7942,4.7702,4.793,4.793,4.7929,4.7929,4.7928,0,4.7272,4.7301,4.7375,4.745,4.7513,4.7482,4.7539,4.7593,4.7676,4.7725,4.7789,4.7887,4.7965,4.7994,4.807,4.8123,4.8112,4.8143,4.8137,4.8143,4.7969,4.7939,4.815,4.815,4.815,4.815,4.815,4.815,4.7397,4.7512,4.7518,4.7652,4.7681,4.7773,4.7808,4.7853,4.7891,4.8002,4.8066,4.8084,4.8124,4.8202,4.8272,4.8278,4.8306,4.8342,4.8343,4.8179,4.8156,4.8135,4.8106,4.8349,4.8349,4.851,4.8512,4.8513]},{"header":{"parameterUnit":"m.s-1","parameterCategory":1,"la1":30.2991,"la2":30.254,"lo1":-89.0895,"lo2":-89.0444,"dy":0.0017,"dx":0.0017,"nx":28,"ny":28,"refTime":"2024-07-30T03:00:00:Z","depth":0,"parameterNumber":3,"parameterNumberName":"V-component_of_WINDS"},"data":[0,0,0,0,0,0,0,0,0,0,0,0,0,0,0,0,0,0,0,0,0,0,0,0,0,0,0,0,0,0,0,0,0,0,0,0,0,0,0,0,0,0,0,0,0,0,0,0,0,0,0,0,0,0,0,0,0,0,3.1839,3.1839,0,3.1863,3.1864,3.1864,3.1812,3.181,3.1808,3.1807,3.1832,3.1835,3.1837,0,0,0,0,0,0,0,0,0,0,0,0,0,3.1746,3.1748,3.1839,3.1839,3.1839,3.1863,3.1864,3.1864,3.1812,3.181,3.1808,3.1806,3.1832,3.1834,3.1837,0,0,0,0,0,0,0,0,0,0,0,0,0,3.178,3.1748,3.1839,3.1816,3.1815,3.1863,3.1864,3.1864,3.1813,3.181,3.1807,3.1805,3.1831,3.1834,3.1837,3.1909,0,0,3.1848,3.1849,0,0,0,0,0,0,0,0,3.1778,3.1783,3.1819,3.1818,3.1816,3.1832,3.184,3.1879,3.1813,3.1813,3.1807,3.1804,3.1834,3.1837,3.1847,3.191,3.1911,3.1848,3.185,3.1851,3.1852,0,0,0,0,0,0,0,3.1776,3.1782,3.1848,3.182,3.1818,3.1805,3.1807,3.1847,3.1838,3.1813,3.1809,3.1813,3.1833,3.1844,3.1848,3.1912,3.1848,3.1851,3.1853,3.1854,3.2032,3.2035,0,0,0,0,0,0,3.1776,3.178,3.1848,3.1849,3.179,3.1808,3.1811,3.1829,3.1837,3.1836,3.1815,3.181,3.184,3.1844,3.1848,3.1931,3.1851,3.1855,3.1857,3.2029,3.2033,3.2036,0,0,0,0,0,0,3.1774,3.1783,3.1847,3.1814,3.1821,3.1813,3.1834,3.1831,3.1842,3.1839,3.1837,3.1829,3.1838,3.1844,3.1894,3.1931,3.1856,3.1859,3.2026,3.203,3.2034,3.2098,0,0,0,0,0,0,3.1772,3.1782,3.181,3.1815,3.1823,3.1892,3.1836,3.1834,3.1848,3.1843,3.1851,3.185,3.1836,3.1889,3.1897,3.1935,3.1862,3.2023,3.2028,3.2033,3.2093,3.2104,3.2114,0,0,0,0,0,3.1769,3.1828,3.1812,3.182,3.1857,3.1895,3.1899,3.1883,3.1852,3.1879,3.1876,3.1849,3.1926,3.1895,3.1903,3.1942,3.202,3.2027,3.2032,3.2088,3.2102,3.2114,0,0,0,0,0,0,3.1828,3.1828,3.181,3.1873,3.1884,3.1886,3.192,3.1898,3.1919,3.1912,3.1891,3.1893,3.1947,3.195,3.1915,3.2011,3.1968,3.1976,3.2007,3.202,3.2031,3.2029,3.1865,0,0,0,0,0,3.1849,3.1879,3.1877,3.1932,3.1939,3.1929,3.1944,3.193,3.1941,3.1946,3.1947,3.1958,3.1985,3.2003,3.2027,3.2093,3.2093,3.2124,3.2135,3.2143,3.215,3.2183,3.2197,3.2055,3.2055,3.2055,0,0,3.1891,3.1895,3.1915,3.1944,3.1952,3.1983,3.1933,3.1969,3.1992,3.1951,3.1998,3.1999,3.2011,3.2069,3.2094,3.2073,3.2189,3.2151,3.2158,3.216,3.2191,3.2204,3.2216,3.2059,3.2059,3.2058,0,0,3.1984,3.1991,3.2036,3.2044,3.2055,3.2047,3.2058,3.2063,3.2062,3.2109,3.2078,3.2105,3.2152,3.216,3.2171,3.2265,3.2241,3.2274,3.2328,3.2361,3.2372,3.2382,3.2414,3.2426,3.2281,3.2281,3.2281,0,3.2036,3.2082,3.2063,3.21,3.2113,3.2077,3.2122,3.2131,3.215,3.2159,3.2134,3.219,3.2196,3.2254,3.2277,3.2287,3.2298,3.2273,3.2372,3.2382,3.239,3.2421,3.2433,3.2285,3.2285,3.2284,3.2284,0,3.2144,3.2176,3.2212,3.223,3.2247,3.2288,3.2274,3.2293,3.2278,3.2272,3.2319,3.2324,3.2348,3.2361,3.2346,3.2417,3.2403,3.2376,3.2332,3.2408,3.2436,3.2448,3.229,3.2289,3.2288,3.2287,0,0,3.2276,3.2281,3.2295,3.2301,3.231,3.2335,3.2374,3.2396,3.2412,3.2426,3.2458,3.2497,3.2471,3.2483,3.2469,3.2498,3.257,3.2467,3.2466,3.2485,3.2646,3.2666,3.268,3.2554,3.2556,3.2558,3.2645,0,3.2367,3.2434,3.2417,3.2483,3.2512,3.2477,3.2511,3.2519,3.2515,3.2538,3.2534,3.2561,3.2526,3.2533,3.256,3.2556,3.2602,3.2549,3.2582,3.2584,3.258,3.2695,3.2717,3.2799,3.2656,3.2658,3.2659,0,3.2483,3.25,3.2569,3.257,3.2582,3.2613,3.2631,3.2654,3.2662,3.2657,3.267,3.2649,3.2687,3.2643,3.2693,3.2658,3.267,3.267,3.2673,3.2675,3.2626,3.2699,3.2825,3.2837,3.2677,3.2675,3.2674,0,3.2571,3.2611,3.2656,3.2664,3.2668,3.2689,3.2692,3.2698,3.2712,3.2728,3.2737,3.2757,3.2768,3.2784,3.2769,3.2739,3.2822,3.2777,3.2817,3.2818,3.2836,3.2835,3.2964,3.2846,3.2846,3.2846,3.2845,0,3.2674,3.2717,3.2696,3.2724,3.2771,3.275,3.2797,3.2795,3.2801,3.2827,3.2799,3.2825,3.2804,3.2827,3.2816,3.2859,3.2864,3.286,3.2857,3.2862,3.2863,3.287,3.2863,3.2849,3.2848,3.2847,3.2847,0,3.278,3.2768,3.2815,3.2814,3.2815,3.2849,3.2848,3.2874,3.2867,3.2901,3.2907,3.2897,3.2923,3.2909,3.2937,3.2929,3.2984,3.2973,3.2981,3.2978,3.3019,3.3015,3.3156,3.3173,3.3045,3.3046,3.3047,0,3.2846,3.2878,3.288,3.2896,3.29,3.2926,3.2939,3.292,3.2935,3.2946,3.297,3.2993,3.3011,3.3054,3.3049,3.3069,3.3058,3.3106,3.3061,3.3065,3.3057,3.3055,3.3057,3.3115,3.3116,3.3118,3.3119,0,3.2964,3.2956,3.2977,3.2995,3.3012,3.3025,3.3036,3.3051,3.3031,3.305,3.3076,3.3089,3.3116,3.314,3.3157,3.3159,3.3135,3.3133,3.3143,3.3149,3.3152,3.3149,3.3005,3.313,3.3129,3.3128,3.3127,3.3127,3.3051,3.3077,3.3082,3.3106,3.3112,3.3122,3.3146,3.3141,3.3162,3.3182,3.3169,3.32,3.3205,3.3226,3.3231,3.3254,3.3235,3.325,3.3254,3.3257,3.3262,3.3149,3.3257,3.3257,3.3257,3.3256,3.3256,0,3.3167,3.3168,3.319,3.3205,3.3223,3.3199,3.321,3.3226,3.3253,3.326,3.3278,3.3307,3.3329,3.3324,3.3344,3.3363,3.3353,3.3369,3.3367,3.3367,3.3279,3.3268,3.3377,3.3377,3.3377,3.3377,3.3377,3.3377,3.3229,3.3271,3.3263,3.3308,3.3308,3.3337,3.3345,3.3354,3.336,3.3393,3.3411,3.3408,3.341,3.3429,3.3448,3.3446,3.3454,3.3474,3.3468,3.3386,3.3374,3.3362,3.3351,3.3476,3.3476,3.3554,3.3555,3.3555]}]]